Weather Roundup
Issued by NWS Chicago, IL

Home | Current Version | Previous Version | Text Only | Print | Product List | Glossary Off
Versions: 1 2 3 4 5 6 7 8 9 10 11 12 13 14 15 16 17 18 19 20 21 22 23 24 25 26 27 28 29 30 31 32 33 34 35 36 37 38 39 40 41 42 43 44 45 46 47 48 49 50

000
NZUS59 KLOT 300404
HRRLOT

CHICAGO AREA WEATHER ROUNDUP
NATIONAL WEATHER SERVICE CHICAGO/ROMEOVILLE IL
1100 PM CDT MON AUG 29 2016

NOTE: "FAIR" INDICATES FEW OR NO CLOUDS BELOW 12,000 FEET WITH NO
SIGNIFICANT WEATHER AND/OR OBSTRUCTIONS TO VISIBILITY.

* THESE STATIONS ARE NOT UNDER NWS QUALITY CONTROL. THEY ALSO MAY NOT
  REPORT WEATHER SUCH AS PRECIPITATION OR FOG.

ILZ005-006-012>014-019>023-300500-
NORTHEAST ILLINOIS

CITY           SKY/WX    TMP DP  RH WIND       PRES   REMARKS
OHARE          CLOUDY    74  72  93 CALM      30.18R FOG
MIDWAY         CLOUDY    78  71  79 N3        30.18R HX  80
AURORA         CLOUDY    73  71  93 CALM      30.18S FOG
LANSING*       CLEAR     75  74  98 CALM      30.18R
JOLIET*        PTCLDY    75  74  96 N3        30.18R FOG
WAUKEGAN       CLOUDY    71  70  96 CALM      30.18R FOG
DUPAGE AIRPORT PTCLDY    73  70  90 E3        30.18S FOG
WHEELING       PTCLDY    73  72  96 CALM      30.19S FOG
KANKAKEE*      CLEAR     75  73  96 CALM      30.17S
MORRIS*        CLEAR     71  70  96 CALM      30.17S FOG
LEWIS AIRPORT* PTCLDY    73  73 100 NE5       30.18S FOG
$$

WIZ051-052-058>065-066-070>072-300500-
SOUTHEAST WISCONSIN

CITY           SKY/WX    TMP DP  RH WIND       PRES   REMARKS
MILWAUKEE      MOCLDY    75  70  84 SW6       30.18S
KENOSHA*       MOCLDY    70  68  93 E3        30.19S
RACINE*        PTCLDY    70  68  93 SW3       30.20S FOG
WAUKESHA       CLEAR     68  64  88 S5        30.20S
$$

INZ001>003-010>013-019-020-300500-
NORTHWEST INDIANA

CITY           SKY/WX    TMP DP  RH WIND       PRES   REMARKS
GARY*          PTCLDY    76  75  96 N3        30.18R
MICHIGAN CITY* NOT AVBL
RENSSELAER*    NOT AVBL
VALPARAISO     CLEAR     73  71  93 E3        30.19R
$$

LMZ740>746-300500-
SOUTHERN LAKE MICHIGAN

STATION/POSITION TIME  SKY/WX   TEMP WIND        PRES    VSBY
                                AIR  DIR/SP/G
                 (UTC)          (F)  (DEG/KT/KT) (MB)    (MI)
HARRISON CRIB    0300            76   80/  5/  6   N/A
BURNHAM HARBOR   0400            74  320/  2/  4   N/A
CALUMET HARBOR   0300            74   10/  4/  6 1021.1S
BURNS HARBOR     0302            74   70/  8/ 10 1021.7F
MICHIGAN CITY    0300            74   60/  4/  5   N/A
$$

ABBREVIATIONS USED IN REMARKS
   TC - TEMPERATURE IN CELSIUS
  WCI - WIND CHILL INDEX
   HX - HEAT INDEX
  VSB - VISIBILITY
$$



USA.gov is the U.S. government's official web portal to all federal, state and local government web resources and services.